Location: Santa Barbara
(34.4500°N, 119.7700°W)
Time: 09:43:17
(UTC-07:00)

Cosmos 1892 Rocket - Visible Passes

Search period start: 21 July 2017 00:00
Search period end: 31 July 2017 00:00
Orbit: 607 x 633 km, 82.5° (Epoch: 21 July)

Date Brightness Start Highest point End Pass type
(mag) Time Alt. Az. Time Alt. Az. Time Alt. Az.
21 Jul 5.6 02:00:11 10° N 02:02:15 26° NNE 02:02:15 26° NNE visible
22 Jul 5.7 02:17:46 10° NNW 02:19:32 23° NNW 02:19:32 23° NNW visible
23 Jul 6.4 00:58:56 10° NE 00:59:42 13° NE 00:59:42 13° NE visible
23 Jul 6.0 02:35:44 10° NNW 02:36:51 16° NW 02:36:51 16° NW visible
24 Jul 6.1 01:15:38 10° NNE 01:17:02 18° NNE 01:17:02 18° NNE visible
25 Jul 6.0 01:32:55 10° N 01:34:23 20° N 01:34:23 20° N visible
26 Jul 6.1 01:50:33 10° NNW 01:51:44 18° NNW 01:51:44 18° NNW visible
27 Jul 6.5 00:31:31 10° NNE 00:31:57 12° NE 00:31:57 12° NE visible
27 Jul 6.3 02:08:34 10° NNW 02:09:07 13° NNW 02:09:07 13° NNW visible
28 Jul 6.3 00:48:20 10° NNE 00:49:21 16° NNE 00:49:21 16° NNE visible
29 Jul 6.3 01:05:39 10° N 01:06:45 17° N 01:06:45 17° N visible
30 Jul 6.4 01:23:20 10° NNW 01:24:09 15° NNW 01:24:09 15° NNW visible
